Ana Sayfa
METAR-TAF:

METAR-TAF

Havaalanları :

Terrell County Airport

Dryden, Teksas, Amerika Birleşik Devletleri

Enlem: 30-02-53N, Boylam: 102-12-47W, yükseklik: 707 m

Güncel hava durumu gözlemi

Rapor saat 01:53 UTC de 28 dakika önce yapıldı.
Rüzgar doğu/kuzeydoğudan 7 kt
Sıcaklık 15°C
Nem 48%
Basınç 1014 hPa

METAR: K6R6 190153Z AUTO 06007KT 15/04 A2993 RMK AO1 SLP120 T01500039

Saat: 20:21 (02:21 UTC)


TAF: eksik

4.000'den fazla havaalanı için hava durumu gözlemleri ve tahminleri (METAR ve TAF raporları).

Kullanılabilir istasyonlar harita üzerinde sarı ve kırmızı noktalarla gösterilir.

İstasyonun adını görmek için fareyi noktanın üzerinde gezdirin.

Sonrasında hava gözlem ve tahminlerini görmek için tıklayın.

Haritayı değiştirmek için: yaklaştırmak için siyah artı işaretli yeşil düğmeye ve uzaklaştırmak için de eksi işaretli düğmeye hızla tıklayın; bitişik haritalar için yeşil okları kullanın.


METAR-TAF: